Погода в Пиле

Польша     53°09′07″N   16°44′47″E
темп.,
°C
ветер,
м/с
пор.,
м/с
влажн.,
%
обл.,
%
осадки,
мм/ч
давл.,
гПа
погр.,
м
27 февраля, сб
сб2701:00+3зсз4138913 0.0 1028648
04:00+3сз5108989 0.0 1028590
07:00+3сз499188 0.0 1030436
10:00+5сз597720 0.0 1032541
13:00+8сз586010 0.0 1034929
16:00+7ссз47600 0.0 1034868
19:00+3сз27810 0.0 1035192
22:00+1зсз25870 0.0 1035135
28 февраля, вс
вс2801:00+1з278929 0.0 1035177
04:00+2з389692 0.0 1033258
07:00+1з3109767 0.0 1033285
10:00+3зсз489388 0.0 1033451
13:00+4зсз598994 0.0 1033555
16:00+5сз4883100 0.0 1032575
19:00+3сз259479 0.0 1034183
22:00+1ссз23962 0.0 103473
1 марта, пн
пн101:00+1сз12931 0.0 103522
04:00+1зсз12910 0.0 103522
07:00+1зсз12910 0.0 103522
10:00+6зюз24710 0.0 1035253
13:00+9з35630 0.0 1035451
16:00+9зюз36670 0.0 1034448
19:00+5з25890 0.0 103497
22:00+4з25930 0.0 103494
2 марта, вт
вт201:00+3з23930 0.0 103478
04:00+2з23940 0.0 103366
07:00+1з23940 0.0 103361
10:00+6з24730 0.0 1033282
13:00+10з24590 0.0 1033486
16:00+11з24570 0.0 1031441
19:00+6з12770 0.0 103122
22:00+5з11830 0.0 103122
3 марта, ср
ср301:00+3з11880 0.0 103022
04:00+3ююз118917 0.0 102922
07:00+2ю129016 0.0 102922
10:00+7ююз237023 0.0 1029275
13:00+11зюз245811 0.0 1027572
16:00+11зюз35620 0.0 1025715
19:00+7зюз23850 0.0 102467
22:00+6з259376 0.0 1023131